DW0326 Weather Reports


Display with metric or nautical units.
time (UTC)temp
F
wind
direction
speed
MPH
gust
MPH
rain 1hr
in
rain 24hr
in
rain mn
in
humidity
%
barometer
mb
20260506150725 80 187 1.0 7.0 0.00 0.00 0.00 91 1005.5
20260506145825 80 179 1.0 8.0 0.00 0.00 0.00 91 1005.5
20260506144926 80 182 2.0 9.0 0.00 0.00 0.00 91 1005.2
20260506144025 80 183 1.0 7.0 0.00 0.00 0.00 92 1005.0
20260506143125 80 196 1.0 9.0 0.00 0.00 0.00 93 1005.0
20260506142225 79 185 0.0 6.0 0.00 0.00 0.00 93 1005.2
20260506141325 79 182 2.0 11.0 0.00 0.00 0.00 94 1005.2
20260506140425 78 169 2.0 10.0 0.00 0.00 0.00 94 1005.4
20260506135525 78 167 2.0 8.0 0.00 0.00 0.00 95 1005.4
20260506134625 78 167 1.0 9.0 0.00 0.00 0.00 95 1005.4
20260506133726 78 166 1.0 6.0 0.00 0.00 0.00 96 1005.5
20260506132825 77 185 1.0 11.0 0.00 0.00 0.00 96 1005.5
20260506131925 77 0 0.0 0.0 0.00 0.00 0.00 96 1005.5
20260506131025 77 0 0.0 0.0 0.00 0.00 0.00 97 1005.5
20260506130125 77 0 0.0 0.0 0.00 0.00 0.00 97 1005.5
20260506125226 77 0 0.0 0.0 0.00 0.00 0.00 97 1005.5
20260506124325 77 0 0.0 0.0 0.00 0.00 0.00 97 1005.5
20260506123425 76 0 0.0 0.0 0.00 0.00 0.00 97 1005.4
20260506122525 76 0 0.0 0.0 0.00 0.00 0.00 97 1005.1
20260506120725 76 0 0.0 0.0 0.00 0.00 0.00 97 1004.9
20260506115825 76 189 1.0 6.0 0.00 0.00 0.00 97 1004.9
20260506114025 76 168 0.0 7.0 0.00 0.00 0.00 97 1004.4
20260506112225 76 177 2.0 7.0 0.00 0.00 0.00 97 1004.3
20260506111325 76 172 2.0 11.0 0.00 0.00 0.00 97 1004.3
20260506110426 76 175 2.0 7.0 0.00 0.00 0.00 97 1004.1
20260506105526 76 175 3.0 10.0 0.00 0.00 0.00 97 1004.2
20260506104626 76 178 1.0 10.0 0.00 0.00 0.00 97 1004.2
20260506103725 76 182 2.0 10.0 0.00 0.00 0.00 97 1004.2
20260506102825 76 178 2.0 11.0 0.00 0.00 0.00 97 1004.2
20260506101926 76 178 3.0 12.0 0.00 0.00 0.00 97 1004.0
20260506101025 76 183 2.0 9.0 0.00 0.00 0.00 97 1004.1
20260506100125 76 185 3.0 10.0 0.00 0.00 0.00 96 1004.1
20260506094326 76 177 2.0 10.0 0.00 0.00 0.00 96 1003.9
20260506093426 76 168 1.0 6.0 0.00 0.00 0.00 96 1003.9
20260506092525 76 168 2.0 7.0 0.00 0.00 0.00 95 1004.0
20260506091625 76 157 1.0 6.0 0.00 0.00 0.00 95 1004.0
20260506090725 76 176 1.0 7.0 0.00 0.00 0.00 95 1004.2
20260506085825 77 177 3.0 11.0 0.00 0.00 0.00 95 1004.2
20260506084925 77 189 3.0 10.0 0.00 0.00 0.00 94 1004.3
20260506084026 77 186 4.0 12.0 0.00 0.00 0.00 94 1004.4
20260506083125 77 187 4.0 12.0 0.00 0.00 0.00 94 1004.4
20260506082225 77 182 3.0 9.0 0.00 0.00 0.00 94 1004.4
20260506081326 77 177 4.0 12.0 0.00 0.00 0.00 94 1004.4
20260506080425 77 186 4.0 11.0 0.00 0.00 0.00 94 1004.4
20260506072825 77 177 2.0 10.0 0.00 0.00 0.00 94 1004.7
20260506071925 77 187 2.0 10.0 0.00 0.00 0.00 93 1004.9
20260506070125 78 181 2.0 7.0 0.00 0.00 0.00 93 1005.0
20260506061626 78 176 3.0 12.0 0.00 0.00 0.00 93 1005.2
20260506060725 78 179 2.0 10.0 0.00 0.00 0.00 93 1005.0
20260506050425 78 186 1.0 12.0 0.00 0.00 0.00 93 1005.2
20260506044625 78 186 4.0 15.0 0.00 0.00 0.00 93 1005.1
20260506043725 77 190 3.0 11.0 0.00 0.00 0.00 93 1004.9
20260506042825 77 184 2.0 12.0 0.00 0.00 0.00 93 1004.9
20260506041925 78 178 2.0 7.0 0.00 0.00 0.00 93 1005.1
20260506041025 78 175 2.0 11.0 0.00 0.00 0.00 93 1005.0
20260506040125 78 177 3.0 9.0 0.00 0.00 0.00 93 1004.9
20260506035225 78 177 4.0 13.0 0.00 0.00 0.00 92 1004.8
20260506033425 78 186 3.0 15.0 0.00 0.00 0.00 92 1004.5
20260506032525 78 176 3.0 17.0 0.00 0.00 0.00 92 1004.6
20260506031625 78 181 4.0 13.0 0.00 0.00 0.00 91 1004.6
20260506030726 78 179 5.0 13.0 0.00 0.00 0.00 91 1004.4
20260506025825 78 179 4.0 12.0 0.00 0.00 0.00 91 1004.4
20260506024925 78 176 5.0 13.0 0.00 0.00 0.00 91 1004.3
20260506024025 78 191 4.0 16.0 0.00 0.00 0.00 91 1003.9
20260506023125 79 179 5.0 12.0 0.00 0.00 0.00 90 1003.9
20260506022225 79 181 3.0 17.0 0.00 0.00 0.00 90 1003.9
20260506021325 79 182 3.0 11.0 0.00 0.00 0.00 88 1003.9
20260506020425 79 186 4.0 13.0 0.00 0.00 0.00 88 1003.7
20260506015525 79 189 4.0 15.0 0.00 0.00 0.00 88 1003.4
20260506014625 79 181 5.0 14.0 0.00 0.00 0.00 88 1003.4
20260506013725 79 181 6.0 17.0 0.00 0.00 0.00 88 1003.2
20260506012825 80 184 5.0 15.0 0.00 0.00 0.00 87 1003.2
20260506011926 80 171 3.0 12.0 0.00 0.00 0.00 87 1003.0
20260506011025 80 177 4.0 13.0 0.00 0.00 0.00 86 1002.9
20260506010125 80 177 2.0 9.0 0.00 0.00 0.00 86 1002.9
20260506004326 80 184 5.0 15.0 0.00 0.00 0.00 84 1002.8
20260506003425 80 190 4.0 13.0 0.00 0.00 0.00 84 1002.8
20260506002525 81 185 5.0 15.0 0.00 0.00 0.00 83 1002.7
20260506001625 81 188 6.0 16.0 0.00 0.00 0.00 83 1002.7
20260505235825 81 188 4.0 16.0 0.00 0.00 0.00 83 1002.5
20260505234925 81 186 7.0 18.0 0.00 0.00 0.00 82 1002.6
20260505234026 81 188 6.0 16.0 0.00 0.00 0.00 82 1002.5
20260505233125 82 186 7.0 17.0 0.00 0.00 0.00 82 1002.5
20260505232225 82 188 5.0 16.0 0.00 0.00 0.00 82 1002.7
20260505231325 82 184 6.0 13.0 0.00 0.00 0.00 83 1002.7
20260505230425 82 197 4.0 14.0 0.00 0.00 0.00 83 1002.6
20260505224626 82 190 7.0 17.0 0.00 0.00 0.00 82 1002.7
20260505223725 82 185 6.0 15.0 0.00 0.00 0.00 82 1002.7
20260505222825 82 184 5.0 14.0 0.00 0.00 0.00 83 1002.7
20260505221925 82 198 5.0 18.0 0.00 0.00 0.00 82 1002.8
20260505221025 83 188 6.0 18.0 0.00 0.00 0.00 82 1002.9
20260505215225 83 184 6.0 15.0 0.00 0.00 0.00 82 1003.0
20260505213425 84 195 6.0 15.0 0.00 0.00 0.00 80 1003.2
20260505212525 84 196 7.0 16.0 0.00 0.00 0.00 80 1003.3
20260505211625 84 196 5.0 15.0 0.00 0.00 0.00 81 1003.3
20260505205825 84 203 6.0 15.0 0.00 0.00 0.00 81 1003.4
20260505204926 84 211 7.0 17.0 0.00 0.00 0.00 81 1003.5
20260505204025 83 209 6.0 16.0 0.00 0.00 0.00 81 1003.9
20260505203125 83 204 6.0 17.0 0.00 0.00 0.00 82 1003.9
20260505202225 83 186 4.0 16.0 0.00 0.00 0.00 82 1004.0
20260505201325 84 187 3.0 13.0 0.00 0.00 0.00 81 1004.0
20260505200425 84 216 6.0 15.0 0.00 0.00 0.00 81 1004.2
20260505195525 84 212 5.0 16.0 0.00 0.00 0.00 81 1004.4
20260505194625 83 207 6.0 17.0 0.00 0.00 0.00 81 1004.4
20260505193726 83 197 7.0 17.0 0.00 0.00 0.00 81 1004.4
20260505191925 82 200 3.0 15.0 0.00 0.00 0.00 84 1004.6
20260505191025 82 194 6.0 15.0 0.00 0.00 0.00 84 1004.8
20260505190125 82 193 4.0 16.0 0.00 0.00 0.00 84 1004.8
20260505185225 81 215 3.0 12.0 0.00 0.00 0.00 84 1004.9
20260505184325 81 209 2.0 11.0 0.00 0.00 0.00 84 1004.9
20260505183425 81 221 3.0 11.0 0.00 0.00 0.00 85 1004.9
20260505182525 81 204 5.0 12.0 0.00 0.00 0.00 85 1004.9
20260505181625 81 203 6.0 17.0 0.00 0.00 0.00 84 1004.9
20260505180725 81 197 5.0 14.0 0.00 0.00 0.00 85 1005.1
20260505175825 80 200 4.0 15.0 0.00 0.00 0.00 85 1005.1
20260505174924 80 197 6.0 14.0 0.00 0.00 0.00 85 1005.4
20260505174025 80 195 7.0 17.0 0.00 0.00 0.00 85 1005.4
20260505173124 80 224 3.0 15.0 0.00 0.00 0.00 85 1005.4
20260505172225 80 190 3.0 14.0 0.00 0.00 0.00 86 1005.4
20260505170425 80 199 5.0 12.0 0.00 0.00 0.00 86 1005.5
20260505164624 80 196 4.0 11.0 0.00 0.00 0.00 86 1005.5
20260505163724 80 194 3.0 12.0 0.00 0.00 0.00 87 1005.5
20260505162825 79 216 4.0 12.0 0.00 0.00 0.00 87 1005.5
20260505161925 79 211 5.0 15.0 0.00 0.00 0.00 87 1005.4
20260505161025 79 205 5.0 15.0 0.00 0.00 0.00 86 1005.3
20260505160124 79 200 5.0 15.0 0.00 0.00 0.00 87 1005.3
20260505152525 78 205 3.0 12.0 0.00 0.00 0.00 87 1005.0